Location: Springfield
(37.2150°N, 93.2980°W)
Time: 19:13:20
(UTC-05:00)

Daily predictions for brighter satellites

Satellite Brightness Start Highest point End
(mag) Time Altitude Azimuth Time Altitude Azimuth Time Altitude Azimuth
BREEZE-M DEB (TANK) 3.6 19:20:22 10° NW 19:23:36 75° NE 19:33:49 10° SE
Tsikada Rocket 4.4 19:24:15 10° NNW 19:30:31 71° W 19:36:39 10° S
ALOS 3.9 19:28:09 10° E 19:30:49 15° ENE 19:33:29 10° NNE
Cosmos 1844 Rocket 4.0 19:26:32 10° NW 19:31:49 45° WSW 19:37:06 10° S
ASTRO E2 3.9 19:31:37 10° SW 19:35:11 30° S 19:38:44 10° ESE
Cosmos 1437 3.1 19:32:17 10° N 19:35:25 44° E 19:38:33 10° SSE
Cosmos 1766 3.7 19:33:19 10° SSE 19:37:00 40° E 19:40:44 10° NNE
Cosmos 2237 Rocket 2.9 19:32:27 10° SSW 19:38:04 62° WNW 19:43:42 10° NNE
Cosmos 2346 Rocket 4.4 19:32:10 10° N 19:38:13 71° E 19:44:14 10° SSE
FREGAT/IRIS 3.2 19:35:23 10° SE 19:38:15 36° ENE 19:41:07 10° N
Spot 2 Rocket 4.1 19:34:00 10° SE 19:38:32 35° ENE 19:43:06 10° N
NOAA 12 4.2 19:36:00 10° SSE 19:41:08 59° ENE 19:46:18 10° N
OAO 3 Rocket 3.6 19:37:04 10° WSW 19:41:41 51° SSE 19:46:04 12° E
Cosmos 2056 Rocket 3.7 19:36:48 10° N 19:42:08 54° ENE 19:47:25 10° SSE
IDEFIX/ARIANE 42P 4.4 19:38:36 10° SSW 19:43:22 36° W 19:48:12 10° NNW
NOSS 3-2 (C) 3.6 19:39:50 10° S 19:45:35 50° ESE 19:51:45 10° NE
COSMO-SKYMED 1 3.7 19:41:58 10° N 19:46:09 48° WNW 19:50:19 10° SSW
Helios 1A 3.7 19:42:52 10° SE 19:46:37 32° ENE 19:50:21 10° N
CZ-4C R/B 3.2 19:41:46 10° SW 19:46:50 47° NW 19:52:32 10° NNE
CENTAUR R/B 4.1 19:48:07 10° ESE 19:48:51 11° ESE 19:48:51 11° ESE
ATLAS 5 CENTAUR R/B 2.3 19:45:36 10° S 19:49:54 37° ESE 19:54:29 10° NE
Cosmos 1371 Rocket 4.1 19:46:21 10° NNW 19:51:41 90° ENE 19:57:00 10° SSE
SAR-Lupe-1 4.1 19:49:37 10° S 19:53:10 82° WSW 19:56:45 10° NNW
Cosmos 1953 3.2 19:50:05 10° SSE 19:53:29 27° E 19:56:54 10° NNE
SL-16 R/B 2.2 19:50:57 10° SSW 19:56:37 82° ESE 20:02:20 10° NNE
Aureole 2 Rocket 3.0 19:54:25 10° SSW 19:58:48 87° ESE 20:03:10 10° NNE
Cosmos 2034 Rocket 4.2 19:55:44 10° SSE 20:01:40 49° E 20:07:43 10° NNE
Cosmos 1464 Rocket 3.9 19:58:36 10° S 20:04:49 72° E 20:11:01 10° N
Cosmos 1766 Rocket 3.8 20:03:34 10° N 20:07:47 45° E 20:11:56 10° SSE
Cosmos 1624 Rocket 4.1 20:04:25 10° NNW 20:09:39 77° WSW 20:14:48 10° S
Cosmos 1805 3.5 20:06:45 10° SSE 20:10:28 44° E 20:14:14 10° NNE
HJ-1C 3.2 20:07:52 10° SSE 20:11:12 77° ENE 20:14:34 10° N
H-2A R/B 3.7 20:12:11 25° E 20:13:10 28° ENE 20:16:31 10° NNE
SL-8 R/B 4.5 20:13:40 10° SSW 20:17:51 31° SE 20:19:07 27° ESE
Meteor 1-29 2.9 20:14:37 10° NNE 20:18:09 82° ESE 20:21:38 10° S
Cosmos 1378 3.8 20:20:04 10° NNW 20:23:43 57° W 20:27:23 10° S
METEOR-M 4.3 20:18:47 10° S 20:24:07 75° WSW 20:29:30 10° NNW
Cosmos 2278 Rocket 3.8 20:19:05 10° NW 20:24:10 35° WSW 20:29:13 10° SSW
USA 215 3.7 20:18:38 10° NE 20:25:03 61° NW 20:31:27 10° WSW
Cosmos 1544 3.3 20:22:32 10° SSE 20:26:05 44° E 20:29:40 10° NNE
Cosmos 2297 3.9 20:22:26 10° NNW 20:28:05 71° WSW 20:33:40 10° SSE
Timation 1 Rocket 4.2 20:23:18 10° NNW 20:29:18 83° ENE 20:34:28 14° SSE
Cosmos 1076 Rocket 3.6 20:25:38 10° N 20:29:58 78° W 20:34:17 10° S
FENGYUN 3A 3.6 20:25:39 12° SSE 20:30:34 62° ENE 20:35:53 10° N
Cosmos-2242 2.9 20:27:07 10° S 20:31:27 76° E 20:35:49 10° N
ERS-1 Rocket 4.4 20:34:40 20° NE 20:34:40 20° NE 20:37:31 10° NNE
Cosmos 1758 3.3 20:30:06 10° S 20:34:10 86° W 20:38:17 10° N
Helios 1B rocket 3.4 20:33:16 10° N 20:37:14 48° WNW 20:41:10 10° SSW
Cosmos 1452 Rocket 3.4 20:33:40 10° NNW 20:38:57 74° ENE 20:41:51 27° SSE
Cosmos 1500 Rocket 4.3 20:38:24 10° N 20:41:43 34° NE 20:41:43 34° NE
Cosmos 1408 Rocket 4.0 20:39:09 10° NNW 20:43:27 62° W 20:47:42 10° S
SeaSat 1 2.3 20:38:40 10° NNE 20:43:34 64° ESE 20:48:26 10° SSW
Cosmos 1603 3.6 20:37:58 10° SSW 20:43:40 75° ESE 20:49:25 10° NNE
Cosmos 2369 Rocket 3.5 20:39:32 10° N 20:43:36 22° NE 20:43:36 22° NE
Resurs 01 Rocket 2.7 20:40:49 10° S 20:45:04 45° W 20:49:21 10° NNW
SEDSat Delta rocket 4.3 20:41:38 10° WSW 20:48:11 52° S 20:50:22 38° SE
CZ-4B DEB 3.0 20:48:46 68° WSW 20:48:55 69° W 20:52:11 10° NNW
Resurs 1-3 4.3 20:44:40 10° S 20:48:57 53° W 20:53:15 10° NNW
Cosmos 468 4.5 20:47:26 10° SSW 20:52:41 85° WNW 20:57:57 10° NNE
Cosmos 1943 Rocket 4.3 20:52:51 10° NNE 20:53:53 12° NE 20:53:53 12° NE
ATLAS CENTAUR R/B 3.9 20:59:30 10° WNW 21:02:10 17° WSW 21:04:42 10° SSW
Cosmos 1420 Rocket 3.9 20:57:43 10° NNW 21:03:00 67° ENE 21:03:19 65° E
ALOS 3.0 21:04:35 18° S 21:07:48 50° W 21:12:21 10° NNW
Cosmos 1674 4.1 21:05:15 10° N 21:07:21 31° N 21:07:21 31° N
Atlas Centaur 2 3.8 21:01:42 10° W 21:09:08 35° SSW 21:11:38 29° SSE
Cosmos 1743 Rocket 3.8 21:05:52 10° NNW 21:10:17 69° W 21:10:41 64° SW
Cosmos 1269 Rocket 4.2 21:08:00 10° SSW 21:13:16 72° WNW 21:18:33 10° NNE
ASTRO E2 4.5 21:11:43 10° WSW 21:13:54 25° SW 21:13:54 25° SW
GP-B 4.3 21:14:06 10° N 21:16:39 34° N 21:16:39 34° N
Nadezhda 4 Rocket 4.3 21:12:44 10° NNW 21:18:57 64° W 21:23:28 19° S
Cosmos 1048 Rocket 4.1 21:14:41 10° SSW 21:20:00 74° WNW 21:25:17 10° NNE
Cosmos 1092 Rocket 3.9 21:17:48 10° N 21:24:02 81° W 21:25:38 53° S
Cosmos 2142 Rocket 4.4 21:23:10 62° SSE 21:24:18 81° E 21:30:43 10° N
OAO 3 Rocket 3.9 21:20:16 10° W 21:23:54 49° WSW 21:23:54 49° WSW
Envisat 4.2 21:30:15 33° N 21:30:15 33° N 21:33:05 10° N
ATLAS 5 CENTAUR R/B 3.8 21:30:35 10° WSW 21:34:38 26° NW 21:38:59 10° N
Cosmos 1634 Rocket 4.0 21:33:48 48° SSW 21:35:37 77° W 21:41:52 10° N
CENTAUR R/B 3.3 21:33:03 10° SSW 21:47:41 - NNE 21:36:16 35° SSW
Cosmos 2026 Rocket 4.4 21:34:41 10° N 21:39:13 51° NNE 21:39:13 51° NNE
Cosmos 2369 Rocket 4.0 22:22:43 10° NNW 22:25:24 27° NW 22:25:24 27° NW
Cosmos 1943 Rocket 4.5 22:34:00 10° NNW 22:35:24 18° NNW 22:35:24 18° NNW
